Flag for India Weather past 2 weeks in Chennai, Tamil Nadu, India

Now
90 °F

Scattered clouds.


Feels Like: 100 °F
Forecast: 82 / 96 °F
Wind: 14 mph from Southeast

Location: Madras / Minambakkam

Current Time: Apr 1, 2015 at 5:01:21 PM

Latest Report: Apr 1, 2015 at 3:40 PM


Visibility: N/A

Pressure: 29.77 "Hg

Humidity: 63%

Dew point: 75 °F

Location of ChennaiLocation

Historic Weather in Chennai — Graph

°F

Chennai temperature yesterday

Maximum temperature yesterday: 93 °F (at 12:40 PM)
Minimum temperature yesterday: 81 °F (at 6:40 AM)
Average temperature yesterday: 87 °F

Past Weeks' High & Low Weather Summary

 TemperatureHumidityPressure
High99 °F (Mar 22, 12:40 PM)94% (Mar 18, 3:40 AM)29.98 "Hg (Mar 18, 3:40 AM)
Low73 °F (Mar 18, 3:40 AM)27% (Mar 21, 1:40 PM)29.74 "Hg (Mar 23, 3:40 PM)
Average85 °F72%29.86 "Hg
* Reported Mar 17 3:40 PM — Apr 1 3:40 PM, Chennai, Weather by CustomWeather, © 2015

Note: Actual official high and low records may vary slightly from our data, if they occured in-between our weather recording intervals... More about our weather records

Advertising

Chennai weather history for previous 24 hours

 ConditionsComfort  
Time TempWeatherWind HumidityBarometerVisibility
3:40 PM
Wed, Apr 1
90 °FScattered clouds.14 mph63%29.77 "HgN/A
2:40 PM91 °FScattered clouds.14 mph59%29.77 "HgN/A
1:40 PM91 °FPassing clouds.14 mph59%29.80 "HgN/A
12:40 PM93 °FScattered clouds.14 mph59%29.83 "Hg5 mi
11:40 AM91 °FScattered clouds.8 mph59%29.86 "Hg5 mi
9:40 AM90 °FScattered clouds.6 mph67%29.89 "Hg4 mi
7:40 AM82 °FFog.No wind89%29.86 "Hg2 mi
5:40 AM81 °FPassing clouds.3 mph89%29.83 "Hg4 mi
4:40 AM81 °FPassing clouds.3 mph89%29.80 "Hg4 mi
3:40 AM81 °FPassing clouds.2 mph89%29.80 "Hg4 mi
2:40 AM82 °FPassing clouds.3 mph84%29.80 "Hg4 mi
1:40 AM82 °FPassing clouds.3 mph84%29.83 "Hg4 mi
12:40 AM84 °FPassing clouds.5 mph79%29.86 "Hg4 mi
11:40 PM
Tue, Mar 31
84 °FPassing clouds.6 mph79%29.89 "Hg4 mi
10:40 PM84 °FPassing clouds.9 mph79%29.89 "Hg4 mi
9:40 PM84 °FPassing clouds.8 mph79%29.89 "Hg4 mi
8:40 PM84 °FPassing clouds.7 mph79%29.86 "Hg4 mi
7:40 PM84 °FPassing clouds.9 mph79%29.83 "Hg4 mi
6:40 PM84 °FPassing clouds.13 mph79%29.80 "Hg4 mi
5:40 PM88 °FPassing clouds.12 mph66%29.80 "Hg4 mi
Weather by CustomWeather, © 2015

See weather overviewHow to use our weather pages